DELTA 2 R/B

Last updated on Mon Sep 21 2026 00:02:09 GMT+0000 (Coordinated Universal Time)

1 25876U 99041E 26263.01221836 -.00000023 00000+0 35031-4 0 9994 2 25876 51.7621 244.8476 0500333 201.9983 155.8779 14.12252396390484
UTC large
Height (km)
Speed (km/s)
/
Latitude / Longitude
Inclination (degrees)
Orbital Period (minutes)
Azimuth
Elevation
Range (km)
Doppler Factor

Next 0 passes for location: London (51.5072 / 0.1276)

No passes found over London.
DELTA 2 R/B